EHI
0 0 0 0 0 0 0 0 0 0 0 0 0 0 0 0 0 1 2 2 6 20 44 72 92 98 98 98 99 100 100 100 100 98 94 87 78 66 53 42 31 21 15 12
0 0 0 0 0 0 0 0 0 0 0 0 0 0 0 0 0 0 1 1 6 22 50 78 94 99 99 99 100 100 100 100 99 96 91 83 70 51 35 26 18 12 8 7
0 0 0 0 0 0 0 0 0 0 0 0 0 0 0 0 0 0 0 0 5 23 54 82 96 99 99 99 100 100 99 97 95 90 82 69 51 30 16 10 6 3 2 2
0 0 0 0 0 0 0 0 0 0 0 0 0 0 0 0 0 0 0 0 4 21 51 82 97 99 98 97 97 95 93 89 86 81 70 54 34 18 9 4 1 0 0 0
0 0 0 0 0 0 0 0 0 0 0 0 0 0 0 0 0 0 0 1 5 20 50 82 96 97 94 88 84 79 75 72 69 63 55 41 26 14 6 2 0 0 0 0
0 0 0 0 0 0 0 0 0 0 0 0 0 0 0 0 0 0 1 3 9 25 56 84 94 90 82 70 60 53 48 45 42 39 35 28 19 10 3 0 0 0 0 0
0 0 0 0 0 0 0 0 0 0 0 0 0 0 0 0 0 0 2 6 16 35 63 83 86 76 63 49 37 29 24 21 19 18 17 14 10 4 1 0 0 0 0 0
0 0 0 0 0 0 0 0 0 0 0 0 0 0 0 0 0 0 2 7 20 42 66 78 74 59 42 28 19 13 10 8 8 8 8 7 3 1 0 0 0 0 0 0
0 0 0 0 0 0 0 0 0 0 0 0 0 0 0 0 0 0 3 9 24 47 67 72 62 43 25 13 8 4 3 3 3 4 4 3 1 0 0 0 0 0 0 0
0 0 0 0 0 0 0 0 0 0 0 0 0 0 0 0 0 0 2 12 31 55 68 66 50 30 14 6 2 1 0 1 1 2 2 1 0 0 0 0 0 0 0 0
0 0 0 0 0 0 0 0 0 0 0 0 0 0 0 0 0 0 2 14 37 59 65 56 37 19 8 3 0 0 0 0 0 0 0 0 0 0 0 0 0 0 0 0
0 0 0 0 0 0 0 0 0 0 0 0 0 0 0 0 1 1 5 18 38 54 55 42 24 10 3 1 0 0 0 0 0 0 0 0 0 0 0 0 0 0 0 0
0 0 0 0 0 0 0 0 0 0 0 0 0 0 0 0 2 3 8 18 31 39 39 28 14 5 1 0 0 0 0 0 0 0 0 0 0 0 0 0 0 0 0 0
0 0 0 0 0 0 0 0 0 0 0 0 0 0 0 1 3 5 10 17 22 26 25 18 8 3 1 0 0 0 0 0 0 0 0 0 0 0 0 0 0 0 0 0
0 0 0 0 0 0 0 0 0 0 0 0 0 1 2 5 10 16 20 22 23 22 19 12 4 2 1 0 0 0 0 0 0 0 0 0 0 0 0 0 0 0 0 0
0 0 0 0 0 0 0 0 0 0 0 0 0 1 5 12 20 28 31 30 26 21 15 7 2 1 1 0 0 0 0 0 0 0 0 0 0 0 0 0 0 0 0 0
0 0 0 0 0 0 0 0 0 0 0 0 0 2 6 11 17 23 26 25 20 14 9 3 1 0 0 0 0 0 0 0 0 0 0 0 0 0 0 0 0 0 0 0
0 0 0 0 0 0 0 0 0 0 0 0 0 1 2 4 5 8 10 10 9 6 3 1 0 0 0 0 0 0 0 0 0 0 0 0 0 0 0 0 0 0 0 0
0 0 0 0 0 0 0 0 0 0 0 0 0 0 0 0 0 0 1 1 1 1 0 0 0 0 0 0 0 0 0 0 0 0 0 0 0 0 0 0 0 0 0 0
0 0 0 0 0 0 0 0 0 0 0 0 0 0 0 0 0 0 0 0 0 0 0 0 0 0 0 0 0 0 0 0 0 0 0 0 0 0 0 0 0 0 0 0
0 0 0 0 0 0 0 0 0 0 0 0 0 0 0 0 0 0 0 0 0 0 0 0 0 0 0 0 0 0 0 0 0 0 0 0 0 0 0 0 0 0 0 0
0 0 0 0 0 0 0 0 0 0 0 0 0 0 0 0 0 0 0 0 0 0 0 0 0 0 0 0 0 0 0 0 0 0 0 0 0 0 0 0 0 0 0 0
0 0 0 0 0 0 0 0 0 0 0 0 0 0 0 0 0 0 0 0 0 0 0 0 0 0 0 0 0 0 0 0 0 0 0 0 0 0 0 0 0 0 0 0
0 0 0 0 0 0 0 0 0 0 0 0 0 0 0 0 0 0 0 0 0 0 0 0 0 0 0 0 0 0 0 0 0 0 0 0 0 0 0 0 0 0 0 0
0 0 0 0 0 0 0 0 0 0 0 0 0 0 0 0 0 0 0 0 0 0 0 0 0 0 0 0 0 0 0 0 0 0 0 0 0 0 0 0 0 0 0 0
0 0 0 0 0 0 0 0 0 0 0 0 0 0 0 0 0 0 0 0 0 0 0 0 0 0 0 0 0 0 0 0 0 0 0 0 0 0 0 0 0 0 0 0
Wind_Speed
16 15 16 18 21 20 20 21 19 18 20 21 20 18 16 14 12 14 14 13 13 10 9 8 14 16 13 11 11 9 9 8 7 6 7 6 6 5 5 6 6 6 6 6
16 20 20 19 19 20 21 22 21 17 15 13 13 15 13 15 15 14 14 13 11 9 7 11 14 15 14 12 11 9 9 9 7 5 4 5 6 6 6 6 6 6 6 4
22 18 21 21 19 19 19 18 18 17 16 16 15 16 15 17 21 20 17 16 15 10 9 13 14 14 13 11 10 9 8 8 6 7 6 6 5 6 6 5 4 5 5 5
21 22 15 14 17 17 15 14 15 17 16 15 18 17 16 18 21 23 21 18 16 13 10 14 15 14 12 10 8 8 8 7 6 7 7 8 7 6 6 5 5 5 4 4
19 19 18 15 14 14 13 14 15 16 15 17 17 18 16 16 18 17 18 18 16 13 10 15 15 13 12 11 9 8 8 7 6 5 6 6 5 5 5 6 6 5 4 4
20 18 16 16 15 13 12 13 13 13 13 17 18 19 19 17 18 16 13 11 10 10 10 16 16 15 13 11 10 9 9 7 6 5 4 4 7 7 7 6 5 4 5 4
21 21 17 13 13 14 14 11 9 12 13 17 19 19 17 16 16 11 5 4 3 7 12 17 17 15 13 12 10 9 9 8 6 5 6 6 7 7 6 5 4 2 4 5
20 19 20 16 14 13 15 16 13 12 13 12 11 10 8 7 4 2 1 2 4 8 12 16 16 14 12 12 11 10 9 8 7 6 6 6 6 4 3 2 2 1 3 6
16 17 20 22 19 17 16 15 16 15 17 16 14 16 13 6 6 6 6 6 5 9 14 16 15 13 12 12 10 10 9 8 7 7 6 5 4 5 5 3 2 4 3 4
15 14 14 15 19 21 19 15 10 12 13 15 15 15 10 8 4 2 3 1 2 11 15 17 15 13 11 11 10 9 8 8 7 6 5 5 5 5 4 3 5 5 4 4
10 11 15 11 13 15 16 17 15 12 12 13 13 8 3 6 6 4 3 1 7 13 16 16 15 14 13 13 11 10 8 8 6 5 4 5 4 3 2 3 4 3 2 1
8 8 12 15 12 12 14 16 15 12 13 13 13 10 5 7 9 10 9 7 8 14 16 17 17 16 14 13 11 9 7 6 5 6 6 5 4 3 3 4 3 2 1 2
10 6 10 13 13 13 14 15 15 12 10 11 13 9 3 8 12 13 12 12 9 12 15 15 16 15 14 12 11 9 6 6 5 6 6 5 4 4 4 4 3 2 2 2
6 7 11 14 8 6 9 12 13 14 12 12 13 11 6 8 8 9 8 8 7 10 13 14 14 13 13 12 11 9 7 6 7 7 6 5 4 4 3 2 2 2 3 3
5 10 13 16 17 14 12 12 11 10 11 12 12 12 10 10 9 9 9 8 8 9 11 14 14 13 13 12 11 10 9 8 7 7 5 4 2 1 1 2 2 3 4 5
6 8 12 15 16 17 17 16 15 14 14 15 16 10 12 14 15 15 13 11 8 8 11 13 14 14 13 12 11 10 9 8 7 5 3 2 1 1 1 2 2 3 4 4
5 6 10 13 15 16 19 16 16 15 12 11 9 9 13 15 16 17 15 13 11 10 11 12 12 13 12 11 11 10 8 6 4 2 1 0 1 1 1 3 4 4 4 5
7 8 7 11 13 17 10 5 5 5 7 10 9 11 11 13 15 17 16 14 13 12 13 13 13 13 12 11 10 7 5 3 2 1 0 0 1 2 3 4 5 5 5 5
8 8 8 9 13 15 4 7 8 5 6 12 10 9 9 6 9 14 16 14 14 14 14 13 13 12 11 9 7 5 3 2 2 1 1 2 3 5 6 7 7 6 5 5
8 8 9 10 11 8 5 7 7 5 3 12 11 10 9 9 4 6 10 13 14 14 13 13 12 11 9 6 4 3 3 2 2 3 5 6 6 6 7 7 6 5 4 5
8 8 10 12 12 1 7 9 8 5 5 9 9 8 8 6 8 10 12 13 13 14 13 12 10 7 5 3 3 3 3 4 5 6 7 6 5 4 6 5 4 4 5 4
4 4 6 7 8 0 11 9 8 8 8 8 8 6 10 14 14 14 14 13 13 13 11 9 7 5 3 3 4 5 5 5 6 6 6 6 6 6 6 4 3 4 5 5
4 4 2 3 4 6 10 9 9 9 9 8 6 5 14 16 15 14 14 12 11 10 8 6 6 6 5 4 5 6 5 5 5 5 5 4 5 5 5 4 5 4 5 5
4 5 4 3 8 9 11 10 10 9 8 7 5 8 14 16 16 15 13 11 9 8 7 6 7 7 6 6 7 6 5 5 5 4 3 3 4 4 4 4 5 5 6 6
4 4 4 2 5 7 11 10 9 9 9 9 10 13 15 16 15 14 12 10 8 7 7 7 7 8 8 7 7 6 5 5 4 3 3 4 5 4 3 5 5 6 6 5
5 5 4 4 5 5 5 6 7 9 10 12 14 15 13 14 14 13 11 9 8 8 7 7 7 8 8 8 8 7 6 6 5 5 5 4 4 4 4 3 4 4 3 3
Wind_Direction
206 218 223 224 225 239 251 257 255 246 239 238 228 233 241 245 222 232 238 236 235 221 190 150 136 134 139 144 150 150 153 148 150 150 155 145 137 125 108 104 98 87 80 76
211 222 231 233 233 232 242 257 267 274 273 261 242 236 244 262 257 237 240 250 245 233 161 132 132 140 148 151 151 151 151 153 159 148 142 136 129 119 105 97 96 92 84 73
226 226 221 232 242 239 239 247 261 270 278 277 268 251 247 256 266 260 241 236 245 233 174 146 142 146 149 153 157 157 152 153 155 134 121 113 102 109 115 125 112 100 99 86
231 240 242 226 233 240 243 248 259 267 268 268 266 265 247 242 244 246 242 232 235 237 193 158 152 148 147 146 141 136 134 134 128 127 136 143 152 152 144 136 121 109 100 101
230 231 236 237 238 241 247 252 252 252 257 264 266 270 267 261 253 247 238 225 226 228 195 155 148 144 138 132 127 123 121 122 126 133 146 154 143 124 121 121 128 129 119 114
247 241 231 235 230 233 243 250 258 262 262 257 254 258 262 259 259 257 243 212 210 220 156 139 135 131 127 125 123 123 120 116 119 123 127 129 123 125 128 129 140 155 150 145
244 249 242 231 235 218 221 233 239 237 236 246 246 246 254 256 260 265 237 180 161 137 133 131 131 132 133 132 130 128 124 118 114 109 105 106 110 114 124 135 157 186 153 132
230 232 232 226 227 236 217 224 239 255 261 268 273 260 263 290 292 306 71 116 130 136 133 130 130 132 136 136 134 131 125 119 112 106 103 103 116 131 127 107 134 111 74 100
244 239 220 215 212 224 237 228 236 252 268 277 281 289 292 257 225 217 221 226 205 146 130 127 128 131 136 135 132 130 125 120 115 111 109 108 100 92 97 90 57 83 75 111
258 279 285 229 205 209 227 244 249 250 262 272 280 282 298 329 336 295 246 253 111 123 124 124 124 129 129 124 118 115 116 116 114 115 123 115 97 96 108 104 78 71 67 63
259 270 277 261 210 215 213 227 243 260 265 268 271 275 29 23 13 1 342 13 111 123 125 125 128 125 120 117 118 116 113 112 113 111 96 96 97 101 109 95 97 91 77 76
276 268 267 266 258 235 237 237 233 238 251 262 273 282 345 26 23 21 9 29 92 120 125 127 125 123 123 123 121 117 115 113 109 100 89 83 76 68 66 76 71 69 58 323
334 271 256 257 259 254 247 246 249 249 253 255 263 273 13 40 28 23 26 38 69 104 116 121 124 125 126 125 122 116 109 105 103 99 92 81 73 65 53 52 43 17 349 318
313 284 267 263 279 315 295 280 268 261 257 258 265 288 350 40 15 10 33 46 76 106 119 122 123 124 124 123 119 112 97 86 84 83 83 73 60 52 42 27 2 335 322 310
270 268 268 273 281 281 275 279 283 284 287 290 297 309 357 34 25 26 37 60 86 109 120 124 124 123 121 116 109 101 92 80 76 74 73 68 57 42 19 356 330 324 331 340
221 276 285 277 274 277 275 273 273 272 277 283 288 313 38 41 37 33 34 44 66 88 110 118 119 120 118 114 109 99 89 80 74 69 65 59 8 352 335 322 342 3 12 14
301 276 271 271 273 274 265 271 277 279 298 317 332 32 39 41 40 36 35 39 51 80 97 106 109 110 109 106 103 98 93 87 81 72 54 335 276 310 3 21 41 34 24 24
285 296 290 276 272 261 274 328 331 320 11 17 31 41 43 61 61 50 44 50 59 73 88 95 100 101 100 99 97 98 101 104 104 103 120 327 29 44 61 55 44 36 22 16
230 252 267 272 265 261 267 23 7 342 57 31 28 24 19 51 82 58 49 59 69 80 88 92 96 99 100 99 102 108 115 134 142 142 88 51 47 55 51 45 32 28 14 15
212 223 242 255 263 271 57 15 358 313 101 31 17 4 352 337 333 69 66 75 81 85 90 96 98 99 100 105 115 122 127 122 104 85 70 61 55 57 57 48 32 14 10 16
219 223 235 246 253 265 16 342 323 290 29 6 359 355 3 39 78 101 94 89 91 94 97 99 100 99 108 126 129 116 105 89 81 79 75 65 46 68 78 61 37 15 11 12
261 265 268 271 263 90 14 18 23 5 355 357 355 25 89 101 104 106 103 102 102 102 103 103 102 102 105 112 105 88 80 80 81 79 77 67 47 42 59 55 44 31 12 12
300 6 353 31 71 62 46 41 24 8 2 1 6 78 116 116 113 111 108 107 108 112 115 119 118 113 111 104 98 95 96 96 95 89 86 84 81 72 46 36 39 31 25 19
345 352 326 41 80 71 57 44 35 28 24 23 42 103 117 117 117 114 112 115 122 130 135 136 123 112 103 96 92 89 89 89 88 87 94 104 88 78 69 45 39 39 29 21
329 326 330 21 73 68 50 40 40 45 50 66 81 102 113 117 117 119 122 129 133 134 133 126 116 109 104 98 93 89 86 88 90 79 69 79 76 65 71 69 49 48 61 45
14 10 11 53 54 69 67 53 61 73 82 93 100 103 108 115 121 125 127 131 133 134 133 125 115 107 99 91 82 75 68 59 51 50 42 54 58 56 55 80 99 77 99 146